• Bienvenue sur Pilotes Québec!
  • Bienvenue sur le site de Pilotes Québec, la nouvelle communauté des pilotes et aviateurs du Québec.
  • L'image de cette semaine nous vient de Denis Morissette!  La photo a été prise à Miguasha, en Gaspésie, lors d'un atterrissage par bon vent de travers et fort vent rabattant en finale.
  • Calendrier des activités
  • sujets récents au forum...
  • Les nouvelles en bref...

Connexion


J'ai oublié mon mot de passe
Renvoyer l'e-mail de confirmation
 

Publicité

Vous aimeriez afficher une publicité pour joindre la communauté des pilotes professionnels et privé du Québec?  Cliquez ici pour en savoir plus!

Conditions actuelles

Click for Quebec, Quebec Forecast

METAR - Québec


2015/08/01 16:00
CYQB 011600Z 17009KT 160V220 20SM FEW017 BKN045 BKN075 21/17 A2965 RMK SC2CU3AC1 SLP041 DENSITY ALT 1300FT

TAF - Québec


2015/08/01 15:09
TAF TAF
AMD CYQB 011503Z 0115/0212 22008KT P6SM BKN015 BKN060
TEMPO 0115/0117 SCT015 BKN060
FM011700 24012G22KT P6SM -SHRA BKN040 PROB30 0117/0124 VRB20G30KT 2SM TSRA BR BKN010 OVC025CB
FM020000 24008KT P6SM SCT050
FM020500 24005KT 6SM BR BKN012
TEMPO 0205/0212 2SM BR BKN006
RMK NXT FCST BY 011800Z